This is the latest recevied weather packets stored in our database for station/object KI5RAB. If no packets are shown the sender has not sent any weather packets the latest 10 day(s).
| Time | Temp. | Humidity | Pressure | Rain* | Wind** | Luminosity | Snow |
|---|---|---|---|---|---|---|---|
| 1788200109 | 34.44° C | 50% | 1019.7 hPa | 0 mm | - | 503 W/m² | - |
| 1788199804 | 34.44° C | 52% | 1019.8 hPa | 0 mm | - | 806 W/m² | - |
| 1788199498 | 35° C | 53% | 1019.8 hPa | 0 mm | - | 755 W/m² | - |
| 1788199198 | 34.44° C | 53% | 1019.8 hPa | 0 mm | - | 764 W/m² | - |
| 1788198895 | 34.44° C | 53% | 1020.1 hPa | 0 mm | - | 724 W/m² | - |
| 1788198590 | 32.78° C | 60% | 1020 hPa | 0 mm | - | 802 W/m² | - |
| 1788198286 | 33.33° C | 59% | 1020.1 hPa | 0 mm | - | 166 W/m² | - |
| 1788197985 | 32.78° C | 58% | 1020.1 hPa | 0 mm | - | 755 W/m² | - |
| 1788197684 | 33.33° C | 59% | 1020.1 hPa | 0 mm | - | 700 W/m² | - |
| 1788197380 | 33.89° C | 56% | 1020 hPa | 0 mm | - | 706 W/m² | - |
| 1788197076 | 32.78° C | 59% | 1020.4 hPa | 0 mm | - | 578 W/m² | - |
| 1788196776 | 33.33° C | 58% | 1020.2 hPa | 0 mm | - | 144 W/m² | - |
| 1788196472 | 32.22° C | 59% | 1020.3 hPa | 0 mm | - | 687 W/m² | - |
| 1788196168 | 32.78° C | 58% | 1020.3 hPa | 0 mm | - | 697 W/m² | - |
| 1788195864 | 33.33° C | 58% | 1020.3 hPa | 0 mm | - | 686 W/m² | - |
| 1788195561 | 33.33° C | 58% | 1020.3 hPa | 0 mm | - | 663 W/m² | - |
| 1788195256 | 32.78° C | 59% | 1020.4 hPa | 0 mm | - | 660 W/m² | - |
| 1788194952 | 32.22° C | 61% | 1020.5 hPa | 0 mm | - | 658 W/m² | - |
| 1788194648 | 32.78° C | 62% | 1020.3 hPa | 0 mm | - | 369 W/m² | - |
| 1788194343 | 32.78° C | 61% | 1020.5 hPa | 0 mm | - | 627 W/m² | - |
| 1788194039 | 32.78° C | 62% | 1020.2 hPa | 0 mm | - | 613 W/m² | - |
| 1788193737 | 32.22° C | 65% | 1020.2 hPa | 0 mm | - | 605 W/m² | - |
| 1788193433 | 32.22° C | 64% | 1020.3 hPa | 0 mm | - | 598 W/m² | - |
| 1788193131 | 32.22° C | 65% | 1020.5 hPa | 0 mm | - | 602 W/m² | - |
| 1788192828 | 31.67° C | 66% | 1020.4 hPa | 0 mm | - | 578 W/m² | - |
* Rain latest hour (hover to see other rain measurements)
** Current wind speed in m/s (hover to see current wind gust speed)